カタログに戻る

COSMOS 877

運用中軍事LEO
NORAD 9594·PAYLOAD·🇷🇺 Russia

打ち上げ Dec 7, 1976 から Plesetsk Cosmodrome

Loading…

次のパス (今後24時間)

TLE

最新Source: Space-Track

元期: Sep 14, 2026, 10:25 UTC

1 09594U 76118G   26257.43459876  .00000011  00000-0  17323-3 0  9999
2 09594  74.0311 151.1085 0005608  76.1731  36.7350 12.51341253273418

AllMySatでCOSMOS 877をリアルタイム追跡

Download on the App Store